GW1482 Weather Reports


Display with metric or nautical units.
time (UTC)temp
F
wind
direction
speed
MPH
gust
MPH
rain 1hr
in
rain 24hr
in
rain mn
in
humidity
%
barometer
mb
20260510080918 54 51 1.0 1.0 0.00 0.00 0.00 85 999.3
20260510080327 54 50 0.0 0.0 0.00 0.00 0.00 85 999.3
20260510075750 54 50 0.0 0.0 0.00 0.00 0.00 85 998.9
20260510074542 53 61 1.0 2.0 0.00 0.00 0.00 87 999.3
20260510073942 53 48 1.0 1.0 0.00 0.00 0.00 87 999.3
20260510073347 53 58 1.0 2.0 0.00 0.00 0.00 87 998.9
20260510072734 53 51 1.0 1.0 0.00 0.00 0.00 87 999.3
20260510072126 53 49 1.0 1.0 0.00 0.00 0.00 87 998.9
20260510071546 53 53 1.0 1.0 0.00 0.00 0.00 87 999.3
20260510070925 54 63 1.0 1.0 0.00 0.00 0.00 86 999.3
20260510070312 54 46 1.0 1.0 0.00 0.00 0.00 86 999.3
20260510065734 54 50 1.0 1.0 0.00 0.00 0.00 86 998.9
20260510065141 54 51 1.0 1.0 0.00 0.00 0.00 86 999.3
20260510063923 54 49 1.0 1.0 0.00 0.00 0.00 85 999.3
20260510063330 54 49 1.0 1.0 0.00 0.00 0.00 85 999.3
20260510062709 54 43 1.0 1.0 0.00 0.00 0.00 85 999.3
20260510062146 54 50 1.0 1.0 0.00 0.00 0.00 84 999.3
20260510061534 54 49 1.0 1.0 0.00 0.00 0.00 85 999.3
20260510060949 54 48 1.0 1.0 0.00 0.00 0.00 84 999.3
20260510060341 54 19 1.0 1.0 0.00 0.00 0.00 83 999.3
20260510055725 54 58 1.0 1.0 0.00 0.00 0.00 84 999.3
20260510055118 54 53 1.0 1.0 0.00 0.00 0.00 84 999.3
20260510054538 54 46 1.0 1.0 0.00 0.00 0.00 83 998.9
20260510053314 54 53 1.0 1.0 0.00 0.00 0.00 83 998.9
20260510052149 54 56 1.0 2.0 0.00 0.00 0.00 82 999.6
20260510051548 54 50 1.0 1.0 0.00 0.00 0.00 82 999.6
20260510050912 54 49 1.0 1.0 0.00 0.00 0.00 83 999.6
20260510050332 54 52 1.0 1.0 0.00 0.00 0.00 83 999.6
20260510045721 54 50 1.0 1.0 0.00 0.00 0.00 83 999.6
20260510045110 54 46 1.0 1.0 0.00 0.00 0.00 83 999.6
20260510043931 55 48 1.0 2.0 0.00 0.00 0.00 81 999.3
20260510043338 55 16 2.0 3.0 0.00 0.00 0.00 79 999.3
20260510042711 55 41 1.0 1.0 0.00 0.00 0.00 81 999.6
20260510042145 55 34 1.0 1.0 0.00 0.00 0.00 79 999.6
20260510041533 54 38 1.0 2.0 0.00 0.00 0.00 82 999.6
20260510040924 54 12 1.0 1.0 0.00 0.00 0.00 81 999.3
20260510040343 54 51 1.0 1.0 0.00 0.00 0.00 82 999.3
20260510035747 54 51 1.0 2.0 0.00 0.00 0.00 82 999.3
20260510035123 54 74 2.0 2.0 0.00 0.00 0.00 83 998.9
20260510034541 54 39 1.0 1.0 0.00 0.00 0.00 83 998.9
20260510033909 54 47 1.0 1.0 0.00 0.00 0.00 83 998.9
20260510033316 54 42 1.0 1.0 0.00 0.00 0.00 82 998.9
20260510032752 54 44 0.0 0.0 0.00 0.00 0.00 82 998.9
20260510032147 54 48 0.0 1.0 0.00 0.00 0.00 81 998.9
20260510031524 54 38 1.0 1.0 0.00 0.00 0.00 81 998.9
20260510030919 54 41 1.0 1.0 0.00 0.00 0.00 81 998.9
20260510030328 54 41 1.0 1.0 0.00 0.00 0.00 80 998.6
20260510025732 55 40 1.0 1.0 0.00 0.00 0.00 80 998.9
20260510025123 55 55 1.0 1.0 0.00 0.00 0.00 80 998.6
20260510023940 55 61 1.0 1.0 0.00 0.00 0.00 79 998.9
20260510022739 55 46 1.0 1.0 0.00 0.00 0.00 80 998.9
20260510021510 55 65 2.0 2.0 0.00 0.00 0.00 80 998.6
20260510020952 54 53 1.0 1.0 0.00 0.00 0.00 80 998.6
20260510015740 55 43 0.0 1.0 0.00 0.00 0.00 79 998.6
20260510015143 56 26 0.0 0.0 0.00 0.00 0.00 79 998.6
20260510014511 56 53 1.0 1.0 0.00 0.00 0.00 76 998.3
20260510013946 56 51 1.0 1.0 0.00 0.00 0.00 75 998.3
20260510012725 56 36 0.0 0.0 0.00 0.00 0.00 74 997.9
20260510012131 56 52 1.0 1.0 0.00 0.00 0.00 75 997.6
20260510011556 56 52 0.0 0.0 0.00 0.00 0.00 75 997.9
20260510010951 57 56 1.0 1.0 0.00 0.00 0.00 75 997.6
20260510010348 57 49 1.0 1.0 0.00 0.00 0.00 74 997.6
20260510005143 57 25 1.0 1.0 0.00 0.00 0.00 71 997.6
20260510004550 57 34 0.0 1.0 0.00 0.00 0.00 72 997.6
20260510003307 57 48 1.0 1.0 0.00 0.00 0.00 72 997.2
20260510002716 58 50 1.0 1.0 0.00 0.00 0.00 72 997.2
20260510001511 58 46 0.0 1.0 0.00 0.00 0.00 72 997.2
20260510000943 58 34 0.0 1.0 0.00 0.00 0.00 68 997.2
20260510000349 58 35 0.0 0.0 0.00 0.00 0.00 71 997.2
20260509235710 59 33 1.0 1.0 0.00 0.00 0.00 69 996.9
20260509235126 59 33 0.0 1.0 0.00 0.00 0.00 68 996.9
20260509234543 59 33 0.0 0.0 0.00 0.00 0.00 68 996.9
20260509233949 60 18 0.0 0.0 0.00 0.00 0.00 65 996.9
20260509233339 61 20 0.0 0.0 0.00 0.00 0.00 64 996.9
20260509232130 61 20 0.0 0.0 0.00 0.00 0.00 62 996.6
20260509231509 61 30 0.0 0.0 0.00 0.00 0.00 63 996.6
20260509230951 61 343 3.0 3.0 0.00 0.00 0.00 61 996.9
20260509230332 61 126 2.0 3.0 0.00 0.00 0.00 61 996.9
20260509225146 62 309 2.0 2.0 0.00 0.00 0.00 60 996.6
20260509224535 62 348 1.0 2.0 0.00 0.00 0.00 59 996.9
20260509223928 62 90 1.0 2.0 0.00 0.00 0.00 59 997.2
20260509223343 62 0 1.0 2.0 0.00 0.00 0.00 60 997.2
20260509222130 62 8 0.0 1.0 0.00 0.00 0.00 57 997.2
20260509220918 63 354 1.0 1.0 0.00 0.00 0.00 56 996.9
20260509220325 64 355 1.0 1.0 0.00 0.00 0.00 57 996.9
20260509215723 64 349 0.0 0.0 0.00 0.00 0.00 53 996.9
20260509215134 64 319 2.0 3.0 0.00 0.00 0.00 56 996.9
20260509214520 64 263 3.0 4.0 0.00 0.00 0.00 55 996.9
20260509213335 63 358 0.0 1.0 0.00 0.00 0.00 55 996.9
20260509212739 62 303 1.0 2.0 0.00 0.00 0.00 57 997.2
20260509212145 62 88 2.0 2.0 0.00 0.00 0.00 57 996.6
20260509211542 62 5 0.0 1.0 0.00 0.00 0.00 56 996.9
20260509210931 62 32 0.0 0.0 0.00 0.00 0.00 61 996.9
20260509210318 62 36 1.0 1.0 0.00 0.00 0.00 59 996.9
20260509205747 63 192 2.0 2.0 0.00 0.00 0.00 57 996.9
20260509205134 63 28 0.0 1.0 0.00 0.00 0.00 58 996.6
20260509204537 63 348 1.0 1.0 0.00 0.00 0.00 60 996.6
20260509203950 63 55 1.0 1.0 0.00 0.00 0.00 56 996.6
20260509203321 63 32 0.0 0.0 0.00 0.00 0.00 57 996.2
20260509202753 63 16 0.0 0.0 0.00 0.00 0.00 57 996.2
20260509202126 63 27 0.0 0.0 0.00 0.00 0.00 54 996.2
20260509201532 64 20 1.0 1.0 0.00 0.00 0.00 56 996.2
20260509200939 65 328 2.0 3.0 0.00 0.00 0.00 53 996.2
20260509200309 64 359 1.0 1.0 0.00 0.00 0.00 57 996.2
20260509195125 64 40 1.0 1.0 0.00 0.00 0.00 53 996.2
20260509193915 64 299 3.0 4.0 0.00 0.00 0.00 51 996.2
20260509193337 64 21 0.0 1.0 0.00 0.00 0.00 53 996.6
20260509192748 64 24 0.0 1.0 0.00 0.00 0.00 51 996.2
20260509191528 66 316 2.0 3.0 0.00 0.00 0.00 50 996.2
20260509190313 67 336 2.0 2.0 0.00 0.00 0.00 48 996.2
20260509185750 68 265 3.0 3.0 0.00 0.00 0.00 47 996.2
20260509185114 67 269 4.0 6.0 0.00 0.00 0.00 50 996.2
20260509184531 65 304 1.0 2.0 0.00 0.00 0.00 53 996.2
20260509183936 64 5 0.0 0.0 0.00 0.00 0.00 55 996.2
20260509183343 65 295 5.0 6.0 0.00 0.00 0.00 55 996.2
20260509182727 66 14 2.0 2.0 0.00 0.00 0.00 53 996.2
20260509182153 65 13 1.0 2.0 0.00 0.00 0.00 55 996.2
20260509181515 66 320 2.0 4.0 0.00 0.00 0.00 52 996.2
20260509180942 66 336 6.0 7.0 0.00 0.00 0.00 53 996.2
20260509180315 65 333 2.0 4.0 0.00 0.00 0.00 56 996.2
20260509175737 63 324 4.0 6.0 0.00 0.00 0.00 56 996.2
20260509175152 62 352 2.0 2.0 0.00 0.00 0.00 58 996.6
20260509174526 63 292 4.0 6.0 0.00 0.00 0.00 56 996.6
20260509173310 63 2 1.0 1.0 0.00 0.00 0.00 57 996.6
20260509172726 62 304 7.0 9.0 0.00 0.00 0.00 59 996.6
20260509171510 63 266 3.0 3.0 0.00 0.00 0.00 62 996.6
20260509170921 62 347 4.0 6.0 0.00 0.00 0.00 62 996.9
20260509170323 61 322 3.0 3.0 0.00 0.00 0.00 63 996.9
20260509165719 60 11 1.0 1.0 0.00 0.00 0.00 68 996.9
20260509165132 59 10 1.0 2.0 0.00 0.00 0.00 67 996.9
20260509164539 59 14 0.0 1.0 0.00 0.00 0.00 68 996.9
20260509163934 58 14 0.0 0.0 0.00 0.00 0.00 70 997.2
20260509162115 58 39 1.0 1.0 0.00 0.00 0.00 69 996.9
20260509161540 58 338 1.0 2.0 0.00 0.00 0.00 70 997.2
20260509160930 58 300 0.0 1.0 0.00 0.00 0.00 68 997.2
20260509160345 58 18 1.0 2.0 0.00 0.00 0.00 68 996.9
20260509155716 57 17 1.0 1.0 0.00 0.00 0.00 69 997.2
20260509154540 58 345 0.0 1.0 0.00 0.00 0.00 68 997.2
20260509153940 58 32 0.0 1.0 0.00 0.00 0.00 70 997.2
20260509153324 57 23 1.0 1.0 0.00 0.00 0.00 68 996.9
20260509152128 57 28 0.0 0.0 0.00 0.00 0.00 67 997.2
20260509150915 58 20 0.0 0.0 0.00 0.00 0.00 69 996.9
20260509150315 58 344 1.0 2.0 0.00 0.00 0.00 68 996.9
20260509145740 58 184 2.0 3.0 0.00 0.00 0.00 67 996.9
20260509145127 58 323 1.0 1.0 0.00 0.00 0.00 68 997.2
20260509144508 58 16 0.0 0.0 0.00 0.00 0.00 68 997.2
20260509143907 58 354 1.0 1.0 0.00 0.00 0.00 67 996.9
20260509142747 58 331 3.0 3.0 0.00 0.00 0.00 63 996.9
20260509141517 58 27 0.0 0.0 0.00 0.00 0.00 63 996.6
20260509140924 58 40 0.0 0.0 0.00 0.00 0.00 64 996.6
20260509140344 58 30 0.0 0.0 0.00 0.00 0.00 64 996.6
20260509135710 57 359 1.0 1.0 0.00 0.00 0.00 64 996.6
20260509135112 57 25 0.0 0.0 0.00 0.00 0.00 65 996.6
20260509134545 57 324 1.0 2.0 0.00 0.00 0.00 63 996.6
20260509133914 57 44 1.0 1.0 0.00 0.00 0.00 63 996.6
20260509132743 57 35 1.0 1.0 0.00 0.00 0.00 65 996.2
20260509132132 57 118 2.0 3.0 0.00 0.00 0.00 64 996.6
20260509131511 57 9 0.0 1.0 0.00 0.00 0.00 64 996.6
20260509130917 57 86 2.0 3.0 0.00 0.00 0.00 64 996.9
20260509130311 56 346 1.0 1.0 0.00 0.00 0.00 63 996.6
20260509125721 56 46 1.0 1.0 0.00 0.00 0.00 64 996.9
20260509125123 55 37 0.0 0.0 0.00 0.00 0.00 68 997.2
20260509123935 55 36 1.0 1.0 0.00 0.00 0.00 65 997.2
20260509123351 55 22 2.0 3.0 0.00 0.00 0.00 64 997.2
20260509122746 54 34 3.0 4.0 0.00 0.00 0.00 65 997.2
20260509122142 54 31 0.0 1.0 0.00 0.00 0.00 65 997.2
20260509121510 54 24 0.0 0.0 0.00 0.00 0.00 65 997.2
20260509120914 54 40 0.0 1.0 0.00 0.00 0.00 68 997.2
20260509120320 54 69 2.0 2.0 0.00 0.00 0.00 69 997.2
20260509115739 54 34 1.0 1.0 0.00 0.00 0.00 67 997.2
20260509115121 54 30 0.0 1.0 0.00 0.00 0.00 65 997.2
20260509113926 53 43 1.0 1.0 0.00 0.00 0.00 67 997.2
20260509113325 53 30 0.0 0.0 0.00 0.00 0.00 67 997.2
20260509112131 53 30 0.0 0.0 0.00 0.00 0.00 65 996.9
20260509110934 53 32 1.0 1.0 0.00 0.00 0.00 65 997.2
20260509110313 53 38 1.0 1.0 0.00 0.00 0.00 66 997.2
20260509104545 54 38 0.0 0.0 0.00 0.00 0.00 65 996.9
20260509103940 54 44 1.0 1.0 0.00 0.00 0.00 64 997.2
20260509103314 54 13 1.0 1.0 0.00 0.00 0.00 62 996.9
20260509102735 53 29 1.0 1.0 0.00 0.00 0.00 65 996.9
20260509102123 53 36 0.0 1.0 0.00 0.00 0.00 63 996.9
20260509101514 53 39 1.0 1.0 0.00 0.00 0.00 66 996.9
20260509100920 53 48 0.0 0.0 0.00 0.00 0.00 65 996.9
20260509100325 53 43 0.0 0.0 0.00 0.00 0.00 64 996.6
20260509095736 53 40 1.0 1.0 0.00 0.00 0.00 64 996.9
20260509095147 53 46 0.0 0.0 0.00 0.00 0.00 65 996.9
20260509094533 53 21 0.0 0.0 0.00 0.00 0.00 65 996.9
20260509093330 53 49 1.0 1.0 0.00 0.00 0.00 65 996.9
20260509092117 53 41 1.0 2.0 0.00 0.00 0.00 66 997.2
20260509090945 53 30 1.0 1.0 0.00 0.00 0.00 61 996.9
20260509090350 53 38 1.0 1.0 0.00 0.00 0.00 65 997.2
20260509085712 53 35 0.0 0.0 0.00 0.00 0.00 62 997.2
20260509085139 53 38 0.0 1.0 0.00 0.00 0.00 65 997.2
20260509084533 53 41 1.0 1.0 0.00 0.00 0.00 64 997.2
20260509083918 53 45 0.0 1.0 0.00 0.00 0.00 62 997.2
20260509083337 53 42 1.0 1.0 0.00 0.00 0.00 61 997.2
20260509082748 53 48 1.0 1.0 0.00 0.00 0.00 63 996.9